TIANZHOU-5

Last updated on Wed Sep 13 2023 00:02:07 GMT+0000 (Coordinated Universal Time)

1 54237U 22152A 23254.45785220 .00008289 00000+0 10000-3 0 9992 2 54237 41.4729 351.1923 0010507 16.0668 87.6170 15.60885925 47430
UTC large
Height (km)
Speed (km/s)
/
Latitude / Longitude
Inclination (degrees)
Orbital Period (minutes)
Azimuth
Elevation
Range (km)
Doppler Factor

Next 0 passes for location: London (51.5072 / 0.1276)

Sorry there are no passes over London.